Theta_e
319 320 321 319 318 318 317 316 318 318 318 319 318 317 320 321 320 323 324 322 320 317 315 313 312 311 310 310 311 311 311 311 312 312 312 312 310 310 309 309 309 309 309 309 309 309 308 308 308 308 308 308 308 307 306 306 307 308 309 310 310 311 311 311 310 310 310 310 311 310 310 310 310 310 311 312 314 315 316 317 317 319 321 324 325 326 327
319 320 320 320 320 322 322 320 319 320 319 320 322 322 323 324 324 325 323 321 319 316 313 312 311 310 310 310 310 310 310 311 311 311 311 310 309 308 308 308 308 308 308 309 309 308 308 308 308 308 308 308 307 307 306 306 306 307 308 309 310 310 310 310 310 310 310 309 310 310 310 309 309 309 309 310 312 314 315 316 317 318 320 323 325 325 326
321 320 320 321 322 323 324 324 323 324 324 324 326 326 325 325 326 323 320 318 316 313 311 310 309 308 309 309 309 310 310 310 310 309 309 308 307 307 307 307 307 307 307 308 308 308 308 307 307 307 308 308 307 307 306 306 306 307 307 308 309 309 309 309 309 309 309 309 309 309 309 309 309 309 308 308 309 311 313 314 316 318 320 322 323 324 325
323 321 321 322 323 322 322 323 323 324 324 325 325 325 325 325 322 319 317 315 312 310 309 308 308 308 308 308 309 309 309 309 309 308 308 307 307 307 307 307 307 306 306 306 307 307 307 307 307 307 308 307 307 306 306 306 306 306 307 308 308 308 308 308 308 308 308 308 308 308 308 308 308 308 308 307 307 308 309 311 312 314 316 319 321 322 323
323 323 323 323 321 319 320 319 319 321 322 323 323 322 323 322 320 318 317 314 309 308 308 307 307 308 308 307 308 307 308 308 307 307 307 307 307 307 307 306 306 306 306 306 306 306 306 306 307 307 307 307 306 306 306 305 305 306 306 307 307 308 307 307 307 307 307 307 307 307 307 307 308 307 307 307 306 306 307 307 309 310 312 314 316 318 320
322 323 323 322 320 319 319 316 316 319 320 320 320 320 319 318 316 316 314 310 308 308 308 307 307 307 307 307 307 307 307 307 307 307 307 307 307 306 306 306 306 306 306 306 306 305 305 306 307 306 306 306 306 306 305 305 305 305 306 306 306 307 307 307 306 306 306 307 307 307 307 307 307 307 307 306 306 306 306 306 306 307 308 309 311 313 314
321 322 323 324 323 319 316 314 315 317 318 317 317 316 316 315 313 311 310 308 308 308 307 307 307 306 306 306 306 306 306 306 307 307 307 307 307 307 306 306 306 306 305 305 305 305 305 306 306 306 305 305 305 305 305 305 305 305 305 305 306 306 306 306 306 306 306 306 306 306 306 306 306 306 306 306 306 306 306 305 305 305 305 306 307 308 309
319 321 322 323 320 315 314 315 315 315 315 315 315 314 314 314 312 310 309 308 308 307 306 306 305 305 305 305 305 305 305 306 306 307 307 306 306 306 305 305 305 305 304 304 304 305 305 306 305 305 305 305 305 305 305 305 305 304 305 305 305 305 305 305 305 305 305 305 305 305 305 305 305 305 305 305 305 305 305 305 305 305 304 304 305 306 307
318 319 319 318 316 316 315 315 315 315 316 317 317 314 312 312 311 310 308 306 306 306 305 305 304 304 304 304 304 304 304 305 305 305 305 305 304 304 303 303 304 303 303 303 303 304 304 305 304 304 304 304 304 304 304 304 304 304 304 304 304 304 304 304 304 304 304 305 305 305 305 304 304 304 304 304 304 304 304 304 305 305 304 304 304 304 305
317 319 319 318 319 319 317 315 315 316 317 317 316 314 311 311 311 309 307 306 306 305 305 304 304 304 304 303 303 303 304 304 304 304 304 304 303 303 302 302 302 302 302 302 303 303 304 304 304 304 303 303 304 304 304 304 304 304 304 303 304 304 304 304 303 303 303 304 304 304 304 304 304 304 304 303 303 303 303 303 303 304 304 304 304 303 303
318 318 319 319 319 319 317 315 315 316 317 317 316 316 314 311 309 309 308 307 306 305 305 304 305 306 306 304 303 303 303 303 303 303 303 303 303 303 302 302 302 302 302 302 302 303 303 303 303 303 303 303 303 303 303 303 303 303 303 303 303 303 303 303 303 303 303 303 303 303 303 303 303 303 303 303 303 303 303 303 303 303 303 303 303 303 303
317 317 317 317 316 316 316 316 315 315 316 316 317 318 316 311 309 309 308 307 307 306 305 305 306 308 307 304 303 303 302 302 303 303 303 303 303 303 302 302 302 302 302 302 302 302 303 303 302 302 303 303 303 303 303 303 303 303 303 302 302 302 302 302 302 302 302 302 302 303 303 303 302 302 302 302 302 302 302 302 302 302 302 302 302 302 302
316 316 316 316 315 315 315 315 315 315 315 316 317 317 314 310 309 309 308 308 307 307 306 307 308 308 306 304 303 302 302 303 303 303 303 303 302 301 301 302 302 301 302 302 302 302 302 302 302 302 302 303 303 303 303 303 302 302 302 302 302 302 302 302 301 301 301 301 302 302 302 302 302 302 301 302 301 301 302 302 302 301 301 301 301 300 301
315 315 315 315 315 314 314 314 314 314 315 316 315 314 311 309 309 308 308 308 308 307 307 308 307 305 304 303 303 303 303 303 303 303 303 302 301 300 300 301 301 301 302 302 302 302 302 302 302 302 302 302 302 302 303 303 302 302 302 302 301 301 301 301 301 301 301 301 301 301 301 301 301 301 301 301 301 301 301 301 301 301 301 301 300 300 300
314 313 314 315 315 314 313 314 314 313 314 314 313 311 310 309 308 308 308 307 307 307 307 306 305 304 303 303 303 303 303 303 303 303 302 301 300 300 300 301 301 301 301 302 302 302 302 302 302 302 301 302 302 302 302 302 302 302 302 301 301 301 301 301 301 301 301 301 300 300 300 300 300 300 300 300 300 300 300 300 301 301 301 301 300 300 299
315 314 314 315 314 313 313 313 313 313 313 313 312 311 311 309 308 308 307 306 306 306 306 305 304 304 304 304 304 303 303 303 302 302 301 301 301 301 301 301 301 301 302 302 302 302 302 302 302 302 301 301 301 302 302 302 302 302 301 301 301 301 301 301 300 300 300 301 300 300 300 299 299 300 299 299 298 299 300 300 300 300 300 300 300 300 299
313 313 312 312 312 312 313 313 313 312 312 312 311 311 310 309 308 308 307 307 306 305 305 304 304 304 304 304 304 303 303 302 301 301 301 301 302 301 301 301 301 301 301 301 301 301 302 302 301 301 301 301 301 301 302 302 302 301 301 301 301 300 300 300 300 300 300 300 300 300 300 299 299 299 299 298 297 297 298 299 300 300 300 300 300 300 299
310 310 310 311 312 311 312 312 312 312 312 311 311 310 309 309 308 308 307 306 305 305 305 305 305 304 304 303 303 303 302 300 300 300 301 301 301 300 300 301 300 300 301 301 301 301 300 300 300 300 300 300 300 301 301 302 301 301 301 301 300 300 300 300 300 300 300 300 300 300 300 299 299 298 298 298 297 297 297 298 299 299 299 299 299 300 299
311 310 309 310 311 310 311 311 311 311 311 311 310 309 309 308 308 307 307 306 305 305 305 305 304 304 303 303 302 302 300 300 300 300 300 300 300 300 300 300 300 301 300 300 300 300 300 300 299 300 300 300 300 301 301 301 301 301 300 300 300 300 300 300 300 300 300 299 299 300 300 299 299 298 298 298 297 297 296 297 297 298 298 298 299 299 299
312 310 309 310 310 310 310 310 310 310 310 310 309 309 308 308 307 307 306 306 305 305 305 304 304 303 303 302 301 301 300 300 300 299 299 299 299 300 300 300 301 301 300 299 299 299 299 299 299 300 300 300 300 301 301 301 301 301 300 300 300 300 299 299 299 299 299 299 299 299 300 300 299 298 298 298 297 296 296 296 296 296 297 297 298 298 298
309 308 309 310 309 309 309 309 310 310 309 309 309 308 307 307 307 306 306 305 305 305 304 304 304 303 302 301 301 300 300 300 299 299 299 299 299 300 300 301 301 300 300 299 299 299 299 299 300 300 301 300 301 301 301 301 301 301 300 300 300 300 299 299 299 299 299 299 299 299 299 299 299 298 298 298 297 297 296 296 296 295 296 296 297 297 297
309 308 309 309 309 309 308 308 309 309 309 308 308 307 307 307 306 306 306 305 305 304 304 304 303 303 302 301 300 300 300 299 299 299 299 299 300 300 300 300 300 300 299 299 299 300 300 300 300 300 301 301 301 301 301 301 301 301 300 300 300 300 299 299 299 299 299 299 299 299 299 299 299 299 298 298 298 297 296 296 296 295 295 295 295 295 296
311 310 309 310 310 309 308 308 308 308 308 308 307 307 307 306 306 306 306 305 304 304 303 303 303 302 301 301 300 300 299 299 299 299 299 300 300 300 300 300 300 299 299 299 300 300 300 300 300 301 301 301 301 301 301 301 301 300 300 300 300 300 299 299 299 299 299 299 299 299 299 299 299 299 298 298 298 297 297 296 296 296 295 295 295 295 295
311 310 310 310 310 309 307 307 308 308 308 307 307 307 306 306 306 305 305 304 304 303 303 303 302 302 301 301 300 300 300 300 299 299 300 300 300 300 300 300 300 299 299 300 300 300 300 300 301 301 301 301 301 301 300 300 300 300 300 300 300 300 300 300 299 299 299 299 299 299 299 299 299 298 298 298 298 298 297 297 297 296 296 295 295 295 294
310 309 309 309 308 307 307 307 307 307 307 307 307 306 306 306 305 305 304 304 304 303 303 302 302 301 301 300 300 300 300 300 299 299 299 299 299 299 299 300 300 299 299 299 300 300 300 301 301 301 301 301 301 301 300 300 300 300 300 300 300 300 300 300 300 299 299 299 299 298 299 299 299 298 298 298 298 298 297 297 297 297 297 296 295 295 294
309 308 308 307 307 307 307 307 307 307 307 307 307 306 306 305 305 304 304 304 303 303 302 302 302 301 301 301 301 300 300 299 299 299 299 299 299 299 299 299 300 299 299 299 299 300 300 301 301 301 301 301 301 301 300 300 300 300 300 300 300 300 299 300 300 300 299 299 299 298 298 299 299 298 298 298 297 297 297 297 297 297 297 296 295 295 294
307 307 307 307 307 307 307 307 307 306 306 306 306 306 305 305 304 304 303 303 302 302 302 302 302 302 301 301 301 300 300 300 300 300 300 299 299 299 299 299 299 299 299 299 299 299 300 300 300 301 301 301 301 301 301 300 300 300 300 300 300 299 299 299 299 299 299 299 299 298 298 299 298 298 298 298 297 297 297 297 297 296 296 296 296 295 294
307 307 307 307 307 307 306 306 306 306 306 306 306 305 305 304 304 303 303 302 302 302 302 302 302 302 302 302 301 300 300 300 301 301 300 299 299 299 299 299 299 300 300 299 299 299 300 300 300 300 300 300 300 300 300 300 300 300 300 300 300 300 300 300 300 299 299 299 299 298 298 298 298 298 298 297 297 297 297 297 296 296 296 296 296 295 294
307 307 307 307 306 306 306 306 306 306 305 305 305 304 304 303 303 303 302 302 301 301 302 302 302 302 302 302 301 300 301 301 301 300 300 300 299 299 299 299 299 299 300 300 299 299 300 300 299 299 299 298 298 298 298 299 300 300 300 300 300 299 298 298 299 300 299 299 299 298 298 298 298 298 298 297 297 297 297 296 296 296 296 296 295 294 294
307 307 307 306 306 306 305 306 305 305 305 304 304 304 303 303 302 302 302 302 302 302 302 302 302 302 302 302 301 301 301 301 301 300 300 300 299 299 299 299 300 300 300 300 299 300 300 299 299 298 298 298 297 297 297 298 299 300 299 299 300 300 297 295 297 299 299 298 298 298 298 298 298 298 298 297 297 297 297 296 296 296 295 295 295 294 293
307 306 306 306 306 306 306 305 305 305 304 304 304 303 303 302 302 302 302 302 302 302 302 302 302 302 302 302 302 302 302 301 301 300 300 300 300 299 299 300 300 300 300 300 299 299 300 300 299 299 299 298 298 297 297 297 297 298 298 298 300 300 297 296 297 299 299 298 298 298 298 298 298 298 297 297 297 297 297 296 296 296 295 295 295 294 294
306 306 306 306 306 305 305 305 305 304 304 303 303 302 302 302 302 302 302 302 302 302 302 302 302 302 302 302 302 302 302 301 301 300 300 300 299 298 299 299 299 299 299 299 299 299 300 300 300 299 299 299 298 298 297 297 297 297 297 298 299 300 298 297 298 298 298 298 298 298 298 298 298 298 297 297 297 297 297 296 296 296 295 295 295 295 294
306 306 306 305 305 305 304 304 303 303 303 302 302 301 301 302 302 302 302 302 302 302 302 302 302 302 302 302 302 302 302 301 301 300 300 299 297 297 298 299 299 299 299 299 299 299 299 300 300 299 299 299 299 298 298 297 297 296 296 298 299 299 299 298 298 298 298 298 298 298 298 297 297 297 297 297 297 297 296 296 296 296 295 295 295 295 294
305 305 305 305 304 304 304 303 303 303 302 302 301 302 302 302 302 302 302 302 302 302 302 302 302 302 302 302 302 302 301 300 300 299 298 297 297 297 298 299 299 299 299 299 299 299 300 299 299 299 299 299 299 299 298 298 298 297 296 297 299 299 298 298 298 297 298 298 297 297 297 297 297 297 297 297 297 297 296 296 296 295 295 295 295 294 294
304 304 304 303 303 303 303 303 303 302 302 302 302 302 302 302 302 302 302 302 302 302 302 302 302 302 302 302 302 300 299 299 299 298 297 297 297 297 298 299 299 299 299 299 299 299 300 299 299 299 299 299 299 299 298 297 297 297 297 297 298 299 298 297 297 297 297 297 297 297 297 297 296 297 297 297 297 297 296 296 296 295 295 295 295 295 294
304 303 303 303 303 303 303 303 303 302 302 302 302 302 302 302 302 302 302 302 302 302 302 301 302 302 301 301 300 299 298 298 299 298 298 298 297 297 298 300 300 300 300 300 299 299 300 299 298 298 298 298 299 299 298 296 296 297 297 298 298 298 298 297 297 297 297 297 296 296 296 296 296 296 296 297 297 297 297 296 296 295 295 295 295 295 295
304 303 303 303 303 303 302 302 302 302 302 302 302 302 302 302 302 302 302 302 302 302 302 302 302 302 301 300 299 299 298 298 298 298 298 298 297 297 298 300 300 300 300 300 300 300 300 299 298 298 297 298 298 299 298 296 295 295 297 298 298 297 297 297 297 297 297 297 296 296 296 296 296 296 296 297 297 297 297 296 296 295 295 295 295 295 295
303 303 303 303 302 302 302 303 303 303 303 302 302 302 302 302 302 302 302 302 302 302 302 302 302 302 300 299 299 298 297 297 298 298 298 298 298 298 299 300 300 300 300 300 300 300 300 299 298 298 298 298 298 298 298 297 295 295 296 298 298 297 296 296 297 297 297 296 296 295 296 296 296 296 296 296 297 297 297 296 296 295 296 296 296 295 295
303 303 303 302 302 302 303 303 303 303 303 302 302 302 302 302 302 302 302 302 302 302 302 302 302 301 300 300 299 299 298 298 298 298 298 298 298 299 299 300 300 300 301 300 300 300 300 299 298 298 298 298 298 298 298 297 295 294 296 298 298 296 295 296 297 297 296 296 296 296 296 296 296 296 296 296 296 296 297 296 296 296 296 296 296 295 295
303 303 302 302 303 303 302 302 302 302 302 302 302 302 302 302 302 302 301 302 302 302 302 302 302 302 301 300 300 300 299 299 299 299 299 299 299 300 300 300 301 301 301 300 299 300 300 298 298 298 299 298 298 298 298 297 295 295 296 297 296 295 295 296 296 296 296 296 296 296 296 296 296 296 296 296 296 296 297 297 296 296 296 296 296 295 295
303 303 302 302 303 302 302 302 302 302 302 302 302 302 302 302 302 301 301 302 302 301 302 302 302 302 302 301 301 301 301 300 300 299 299 299 300 300 300 300 301 302 301 300 299 299 299 298 297 298 299 298 298 298 297 296 296 296 297 296 295 295 296 296 296 296 296 296 296 296 296 296 295 295 295 296 296 296 296 296 296 296 296 296 296 295 295
303 303 303 303 303 303 302 302 302 302 302 302 302 302 302 302 302 301 301 302 301 301 301 302 302 302 302 302 302 302 302 301 301 301 300 300 300 300 300 301 302 302 301 299 298 299 299 298 297 298 298 298 298 297 296 295 296 297 296 295 295 296 296 296 296 296 296 296 296 296 296 295 295 295 295 296 296 296 296 296 296 296 296 296 296 295 295
303 302 302 303 303 303 303 302 302 302 302 302 303 302 302 302 301 301 301 301 301 301 301 302 302 301 301 302 302 301 301 301 301 301 301 301 301 301 301 301 302 302 301 299 298 299 299 298 298 298 298 298 298 297 296 295 296 297 296 296 296 296 296 296 296 295 295 296 295 295 295 295 295 295 295 296 296 296 295 295 295 295 295 295 295 295 295
303 303 303 303 303 303 303 303 302 302 302 302 302 302 302 302 301 301 301 301 301 301 301 301 301 301 301 301 301 301 302 301 301 301 301 301 301 301 301 300 301 301 300 298 298 299 299 298 298 298 298 298 297 296 295 296 297 297 296 296 296 296 296 296 295 295 295 295 295 295 295 295 295 295 295 295 296 295 295 295 295 295 295 295 295 295 295
303 303 303 303 303 303 303 303 302 302 302 302 302 302 302 302 302 301 302 301 301 301 301 301 301 301 301 301 301 301 301 301 301 301 301 301 301 301 301 300 300 300 299 297 298 299 299 299 299 298 298 298 297 296 295 295 296 296 296 296 296 296 296 296 295 295 295 295 295 295 295 295 295 295 295 295 295 295 295 295 294 294 295 295 295 295 295
303 303 303 303 303 303 303 303 302 302 302 302 302 302 302 302 302 301 301 301 301 301 301 301 301 301 301 301 301 301 301 301 301 301 301 301 301 302 302 301 301 300 298 297 297 298 299 299 299 299 298 297 296 295 295 295 296 296 296 296 296 296 296 296 295 295 295 295 295 295 295 295 295 295 295 295 294 294 294 294 294 294 294 294 294 295 295
304 304 304 303 303 303 303 302 302 302 302 302 302 302 302 302 302 301 301 301 301 301 301 301 301 301 301 301 301 301 301 301 301 301 301 300 301 301 301 301 301 300 298 296 296 298 299 299 299 298 297 296 295 295 295 295 296 296 296 296 296 296 296 296 295 295 295 295 295 294 294 294 294 294 294 294 294 294 294 294 294 294 294 293 293 294 294
304 304 304 303 303 303 303 303 302 302 302 302 303 303 302 302 301 301 301 301 301 301 301 301 301 301 301 301 301 301 301 301 301 301 301 300 300 301 301 301 300 299 297 296 296 297 298 298 298 297 296 295 295 295 295 296 296 296 296 296 296 296 296 295 295 295 295 295 295 295 294 294 294 294 294 294 294 294 294 294 294 294 294 293 293 293 293
304 304 304 303 303 303 303 302 302 302 302 302 303 303 302 302 301 301 301 301 301 301 301 301 301 301 301 300 300 300 300 300 300 301 301 301 301 300 300 300 299 298 296 296 297 297 297 297 297 296 296 295 295 295 295 296 296 296 296 296 296 295 295 295 295 295 295 294 294 294 294 294 294 294 294 294 294 294 294 294 294 294 293 293 293 293 293
304 304 304 303 303 303 303 303 303 303 303 303 302 302 302 302 301 301 301 301 301 301 301 301 301 301 301 300 300 300 300 300 300 300 300 300 300 300 299 300 299 298 295 296 298 299 298 297 297 296 296 296 296 295 296 296 296 296 296 296 296 295 295 295 294 294 294 293 294 294 295 295 294 294 294 294 294 294 294 294 293 293 293 293 293 293 293
304 304 303 303 303 303 303 303 303 303 302 302 302 302 302 301 301 301 301 301 301 301 301 301 301 301 301 301 300 300 300 300 300 299 299 299 299 299 298 298 299 297 295 295 297 299 298 297 297 296 296 296 296 296 296 296 296 296 296 296 295 295 294 294 294 294 294 294 294 294 294 294 294 294 294 294 294 294 293 293 293 293 293 293 293 292 292
304 304 303 303 303 303 303 303 303 302 302 302 302 302 302 301 301 301 301 301 301 301 301 301 301 301 301 301 300 300 300 300 300 299 298 298 298 298 297 297 297 297 295 295 297 298 298 297 297 297 296 296 296 296 296 296 296 296 295 295 295 294 294 294 293 293 293 294 294 294 294 294 294 294 293 294 294 293 293 293 293 293 292 291 291 291 291
Wind_Speed
4 1 3 9 11 10 11 14 12 11 12 11 11 11 5 3 1 6 11 15 17 15 14 14 14 14 15 15 16 15 15 15 14 14 13 12 12 12 12 12 13 13 13 13 14 14 15 15 16 15 15 16 17 18 18 18 19 19 19 19 19 20 20 20 20 20 19 19 20 21 21 21 21 21 20 19 19 20 20 20 19 18 18 18 18 18 18
9 7 5 8 9 7 5 7 9 8 9 9 7 6 6 6 8 13 17 17 15 14 14 14 15 17 18 17 17 16 15 15 14 14 13 12 13 13 12 13 13 12 13 13 13 14 14 15 16 16 16 17 17 18 18 18 19 18 18 19 19 20 20 20 20 20 19 20 21 21 21 21 21 21 20 20 20 19 19 19 18 18 18 17 17 17 17
9 10 9 8 11 13 13 10 8 7 8 9 9 10 12 13 14 17 20 19 13 11 15 18 18 18 18 18 17 16 15 15 14 14 13 13 13 13 12 12 12 12 12 12 13 14 14 15 16 16 16 16 16 17 18 18 18 18 18 18 18 19 20 20 20 20 20 21 21 22 22 22 21 21 21 21 20 20 21 20 19 17 16 16 16 16 16
6 10 12 13 14 16 15 12 10 8 8 9 9 9 10 14 19 19 17 13 9 11 17 19 18 18 18 18 17 16 15 15 14 13 13 13 13 12 12 11 11 12 12 13 13 14 14 14 15 15 15 15 15 16 17 17 18 18 18 18 18 18 19 19 20 20 20 21 21 21 22 22 22 22 21 22 21 21 23 25 23 20 17 16 15 15 15
7 8 11 13 13 10 8 7 7 5 6 10 12 12 12 14 16 12 8 9 11 14 17 17 16 18 18 17 17 16 16 15 14 13 13 13 13 12 12 12 12 12 12 13 13 13 14 14 14 14 13 14 15 15 16 16 17 17 17 18 18 18 19 20 20 21 21 21 21 21 22 22 22 22 22 22 22 20 21 25 27 27 24 20 17 17 16
7 9 9 10 9 6 3 3 4 4 5 11 13 14 13 12 11 9 11 14 16 16 16 16 17 17 17 18 17 16 16 15 14 13 12 12 12 12 12 12 12 12 13 13 13 13 14 13 12 12 12 13 13 14 15 15 17 17 18 18 18 18 19 20 20 21 21 21 22 22 22 23 22 22 22 21 20 20 19 21 25 29 30 28 24 21 20
7 8 9 8 6 3 2 1 2 6 10 14 16 15 12 12 14 18 19 18 17 17 18 19 20 20 19 19 17 15 15 14 14 13 12 11 11 11 10 10 10 11 12 12 13 13 13 11 10 11 12 12 13 13 14 15 16 17 17 18 19 19 19 20 20 21 21 21 22 22 23 23 23 23 23 22 21 20 19 20 22 24 27 32 32 29 26
7 7 6 5 4 5 4 4 6 9 11 12 13 13 11 9 12 17 19 18 19 21 22 22 23 23 22 20 17 14 14 13 12 12 11 11 10 10 9 9 9 10 11 12 12 12 11 9 10 11 12 12 12 13 14 14 16 17 17 18 19 20 20 20 20 21 21 21 22 23 23 23 24 24 25 24 23 22 20 20 21 19 21 27 32 33 32
7 6 3 4 5 6 6 6 7 8 6 5 6 8 7 7 11 16 18 18 20 23 24 24 25 24 22 18 14 13 13 12 12 12 11 11 10 10 9 9 9 9 10 11 11 11 10 9 10 11 12 12 12 13 14 14 15 16 17 18 19 20 20 21 21 21 21 21 22 22 23 23 24 24 24 25 25 24 22 22 21 20 20 21 24 29 34
6 6 5 4 5 4 5 8 8 4 2 4 9 9 6 6 12 18 19 19 22 24 24 25 24 20 15 10 10 12 13 13 13 12 11 10 9 9 8 8 9 9 9 10 11 10 10 10 11 11 12 13 13 13 14 15 15 16 17 18 19 19 19 20 21 21 21 21 22 22 22 23 23 23 23 24 24 24 23 23 22 21 21 19 19 24 30
6 5 5 5 3 2 4 9 10 7 5 6 8 6 4 8 14 19 20 21 22 24 24 24 21 13 7 7 11 15 15 13 13 12 11 10 9 8 8 8 8 8 8 9 10 10 10 11 11 11 12 13 13 14 14 15 15 16 16 17 18 18 19 19 20 21 21 21 21 21 22 23 23 23 23 23 23 23 23 23 23 22 22 21 20 21 24
6 5 5 3 2 3 6 9 10 8 6 6 7 5 5 13 18 19 21 22 21 23 24 22 14 7 5 10 16 18 17 14 13 12 11 9 8 7 7 6 6 7 7 8 9 10 11 11 11 11 11 12 14 14 14 15 15 15 15 16 16 17 18 18 19 21 22 22 21 21 22 22 23 23 23 23 24 23 23 23 23 23 22 22 23 23 22
6 7 5 4 4 5 8 9 9 8 6 6 6 2 8 20 23 21 21 22 22 22 20 15 8 5 11 19 22 20 17 14 13 12 11 9 8 7 7 6 7 7 7 7 8 9 10 11 11 11 11 12 13 14 14 15 15 15 15 15 16 17 17 18 19 20 21 22 21 21 22 22 22 23 23 24 24 24 23 23 23 24 23 23 24 25 24
5 5 4 5 4 4 7 9 9 6 3 3 2 8 18 26 26 23 22 22 22 20 16 13 13 17 22 25 23 19 17 15 14 12 11 10 9 8 8 7 6 6 6 7 7 9 9 10 10 11 11 12 12 13 14 15 15 15 15 15 15 16 17 18 19 19 21 22 22 22 22 22 22 23 24 24 24 24 24 23 24 24 24 23 24 24 24
4 5 5 3 2 5 9 10 7 1 1 5 13 18 22 25 24 24 24 22 21 18 16 18 22 24 25 24 21 19 17 15 14 12 11 10 9 8 7 6 6 6 6 7 7 8 8 9 9 10 11 12 12 13 13 14 14 14 14 15 15 15 16 17 18 18 19 20 21 23 24 23 23 23 24 25 25 24 24 24 24 24 24 23 24 24 24
3 4 4 2 5 10 11 8 6 5 7 14 20 22 22 23 24 24 23 21 19 19 22 24 25 25 24 22 21 20 17 15 14 12 11 11 9 8 7 7 7 7 7 7 7 8 8 8 9 9 10 11 12 12 12 13 13 13 14 15 15 15 15 16 18 18 18 19 19 21 23 24 24 24 25 26 27 26 24 24 24 24 24 24 24 24 25
5 5 6 8 11 13 10 9 12 14 15 17 20 22 23 24 23 23 22 22 22 22 25 26 25 24 24 22 21 19 17 15 14 12 11 10 9 8 8 7 7 7 7 7 7 8 8 8 8 9 9 10 11 11 11 11 12 13 14 15 15 16 16 16 17 18 18 19 19 19 21 24 24 24 25 26 29 28 25 24 25 24 23 23 22 23 26
10 11 10 11 14 14 12 14 15 16 17 18 19 21 23 23 23 22 22 24 25 25 25 26 25 24 24 22 20 18 16 15 13 13 12 11 9 9 8 7 7 8 8 8 7 8 8 8 8 8 9 10 10 10 10 11 11 12 13 14 15 16 16 16 17 18 18 19 19 18 19 22 24 24 24 24 28 30 28 24 25 24 24 23 22 22 27
5 6 7 10 14 14 15 16 16 15 17 19 19 21 23 23 23 23 24 25 26 25 24 25 26 25 23 22 20 17 15 15 14 13 12 11 10 10 8 8 8 8 8 7 7 7 7 7 8 8 9 9 10 10 10 11 11 11 12 14 15 16 17 16 17 18 18 19 19 18 17 19 22 23 23 22 26 32 32 27 25 24 24 25 23 23 28
5 8 11 13 15 15 15 15 16 16 17 19 20 21 23 24 24 24 25 25 25 25 24 25 26 24 22 20 18 17 16 16 15 13 13 11 11 10 8 8 8 8 8 7 7 7 7 7 7 8 8 9 9 9 10 10 11 11 11 13 14 15 16 16 17 17 18 18 20 19 17 18 21 23 23 22 26 32 34 32 29 26 24 24 23 23 25
9 10 13 15 15 14 12 13 15 16 18 20 21 22 23 24 25 25 24 24 25 26 26 25 24 23 21 18 18 17 17 16 15 14 13 12 11 10 10 9 9 8 8 7 7 7 7 7 7 7 8 9 9 9 9 10 11 11 11 12 13 14 15 16 16 17 17 18 19 19 18 18 21 24 24 23 26 30 32 32 32 30 26 25 24 23 23
6 8 15 16 12 10 12 14 16 17 19 21 22 23 24 25 26 26 25 25 25 25 25 24 22 21 20 18 18 17 17 16 16 15 14 13 12 11 11 10 9 8 8 8 8 8 8 7 8 8 8 8 8 9 9 10 11 11 11 11 12 13 15 15 16 16 17 17 18 18 18 18 19 22 24 24 26 28 30 31 31 31 30 28 26 24 23
6 14 22 18 11 13 17 17 18 19 20 22 24 25 26 26 25 25 26 27 27 25 24 22 21 20 20 19 18 18 17 16 16 15 14 13 12 11 10 9 9 8 8 8 8 8 8 8 8 8 8 8 8 8 9 10 11 11 12 11 12 13 13 14 15 15 16 16 17 17 18 18 18 19 21 23 24 26 28 29 29 29 30 30 29 28 25
13 18 20 15 16 20 21 19 20 21 21 23 25 26 25 25 25 26 27 27 27 26 24 22 20 19 19 19 18 18 18 16 15 14 13 12 11 11 10 9 8 8 8 8 8 8 8 8 8 8 8 8 8 8 9 9 10 11 11 11 11 12 12 13 14 14 14 15 16 17 17 17 18 18 18 20 22 24 26 28 28 26 27 30 33 33 30
17 17 17 18 21 24 22 21 21 21 22 24 26 25 25 25 26 27 27 26 25 25 24 22 20 19 19 19 18 18 17 16 15 14 13 12 11 10 9 8 8 7 7 7 7 7 8 8 7 7 7 7 7 7 8 9 9 10 11 10 10 11 11 11 12 13 14 14 15 16 16 16 17 18 18 19 20 22 23 25 26 24 25 29 32 34 33
19 19 21 22 23 23 23 22 22 22 23 25 25 25 26 26 27 27 26 24 24 23 23 22 20 18 18 18 17 16 17 16 14 13 12 11 10 9 8 8 7 6 6 7 7 7 7 7 7 7 7 6 7 7 7 8 8 9 10 10 10 11 13 12 11 12 13 13 14 16 15 15 16 17 18 18 19 20 20 21 22 22 23 26 29 31 32
18 20 23 24 22 22 23 23 23 24 24 25 26 27 27 27 26 25 24 24 23 22 21 21 19 17 17 16 16 16 16 14 12 11 11 10 9 8 8 7 7 6 6 6 6 7 6 6 6 6 6 6 6 6 6 7 7 7 8 9 9 11 14 13 11 12 13 12 13 15 14 14 16 17 17 18 18 19 19 19 20 20 20 21 24 27 29
19 21 21 21 22 23 24 24 25 25 25 26 28 28 28 27 26 25 24 23 22 21 19 18 17 16 16 15 15 15 14 12 11 11 10 9 9 8 7 7 6 5 5 5 5 5 4 4 5 5 5 6 6 6 6 6 6 6 7 8 8 9 11 11 10 11 12 12 12 13 13 14 15 16 16 17 17 18 19 19 18 19 20 20 20 23 26
20 20 19 21 23 26 26 26 26 26 27 28 28 28 27 27 25 24 23 22 21 20 19 17 16 15 15 14 13 13 12 11 11 11 10 9 8 7 7 7 6 5 4 4 3 3 3 3 4 4 5 6 6 6 6 6 6 6 7 8 7 8 11 10 9 9 11 11 12 12 13 14 15 15 15 16 17 17 18 19 19 18 19 20 20 21 24
20 21 23 25 26 27 28 28 27 28 28 28 28 27 26 25 24 23 23 21 20 19 18 16 15 14 13 12 12 11 11 11 11 10 9 9 8 7 7 6 5 4 4 3 2 2 2 3 3 4 5 6 6 7 6 6 6 6 7 7 7 10 13 11 8 8 11 11 11 12 13 13 14 15 14 15 16 16 16 18 19 18 18 19 19 19 23
23 24 26 28 27 27 28 28 28 28 27 27 26 26 25 24 24 23 21 20 19 18 17 15 14 13 12 11 11 10 11 11 11 10 9 8 8 7 6 4 3 4 4 3 2 1 1 1 2 3 4 5 6 7 7 7 6 6 7 6 7 12 15 12 8 7 10 11 11 12 12 12 13 14 14 14 15 15 16 17 17 17 18 19 18 16 20
26 26 27 28 27 27 27 27 27 27 26 25 25 25 24 23 23 22 20 19 18 17 16 14 13 13 12 11 10 10 11 11 10 10 10 9 8 8 6 3 3 4 3 3 2 1 1 0 1 2 3 4 6 7 7 7 7 6 7 6 6 9 11 10 9 8 9 10 11 11 12 12 13 13 13 13 13 14 15 16 16 16 17 18 17 15 19
26 27 27 27 27 27 27 26 26 26 26 25 24 23 22 21 21 20 18 17 16 16 15 13 12 12 12 11 10 10 11 11 11 11 10 10 9 8 6 4 4 4 3 3 3 2 1 1 1 1 2 3 5 6 7 7 7 7 7 6 6 6 7 9 10 9 9 10 11 11 11 12 12 12 12 12 12 13 13 14 15 15 15 16 16 16 19
23 24 25 25 26 26 27 27 26 26 25 24 23 21 21 20 20 18 16 15 16 15 13 12 12 12 11 11 11 11 11 11 11 11 12 10 9 8 6 4 4 4 4 4 4 3 2 2 1 1 2 3 5 6 7 7 6 6 7 6 6 6 7 8 9 10 9 10 10 10 11 12 11 11 12 11 11 12 12 13 14 14 14 14 14 15 18
21 21 22 22 22 23 24 25 25 25 24 23 22 20 19 19 18 17 15 14 15 14 12 12 12 11 11 13 12 10 11 12 11 10 11 10 9 8 7 5 5 5 4 4 4 4 4 3 3 2 2 3 3 4 6 7 6 6 7 7 6 6 7 7 9 9 9 9 10 9 10 11 11 11 12 11 10 11 11 12 13 13 13 12 12 13 15
21 22 22 22 22 22 23 23 23 23 22 21 21 20 19 18 17 16 15 14 14 13 12 13 12 11 13 13 11 9 10 12 11 10 10 9 9 8 7 5 5 5 4 6 6 5 5 6 5 4 3 2 1 4 8 8 7 5 6 7 6 6 7 7 8 8 8 9 9 9 9 11 11 12 12 11 10 10 11 12 13 13 12 12 12 11 11
21 22 21 21 22 22 22 22 22 22 21 20 19 19 18 18 17 15 14 14 13 13 13 13 12 12 13 13 10 8 10 12 12 11 10 9 9 8 6 5 5 4 5 7 8 6 6 8 7 5 2 3 1 6 10 10 8 6 5 6 7 7 7 7 7 8 8 8 9 9 10 11 12 12 13 12 10 10 10 11 12 13 12 11 11 11 10
21 20 20 21 22 22 21 21 20 20 19 19 18 18 17 17 15 14 14 13 13 13 13 13 12 12 13 13 11 10 11 12 12 11 10 9 9 8 6 6 6 5 5 6 6 6 8 11 7 4 2 1 3 6 9 10 9 7 5 5 6 7 6 6 7 7 7 8 8 9 10 11 12 13 13 12 11 10 9 9 11 12 12 11 11 11 10
21 21 21 22 22 22 21 20 19 19 19 19 18 17 17 16 15 14 13 13 13 13 13 13 13 13 14 14 12 11 11 12 11 10 9 9 8 7 7 7 7 6 6 5 4 5 10 11 7 2 2 4 4 5 9 12 11 8 5 5 6 6 6 6 6 7 7 8 9 10 11 11 12 12 12 12 11 11 10 10 11 11 11 11 11 11 11
22 22 23 23 22 21 21 20 19 18 18 18 17 16 16 15 15 14 13 12 12 12 13 13 14 14 14 14 13 13 13 12 11 10 10 9 8 8 9 10 9 9 10 8 6 7 10 10 5 2 4 5 4 4 8 11 9 7 4 5 5 5 5 5 5 7 8 9 10 11 11 12 12 12 12 12 12 11 10 10 10 10 10 10 11 10 10
22 22 23 23 21 21 21 20 19 18 18 17 16 16 15 15 15 15 13 11 11 12 13 13 14 14 14 13 13 12 12 13 13 12 11 11 9 9 9 10 9 11 12 9 7 9 12 11 6 5 4 5 7 9 8 8 6 4 4 4 4 4 4 5 5 7 8 9 10 11 11 12 12 12 11 11 11 10 10 10 10 10 10 10 10 9 9
23 23 23 22 21 21 21 20 19 18 18 17 16 15 15 15 15 14 13 12 11 12 12 13 14 14 13 12 12 11 11 12 12 12 12 12 11 10 8 7 8 12 12 9 8 10 12 10 8 7 5 4 8 11 9 5 3 3 4 3 3 4 4 4 6 7 8 9 10 11 11 11 11 11 11 11 10 10 10 10 10 10 10 10 9 9 8
23 24 23 22 21 21 21 20 19 18 17 16 16 15 15 15 15 14 13 12 12 12 12 13 14 14 13 12 12 12 11 11 11 12 12 12 12 11 10 7 7 9 10 9 7 9 10 8 9 10 9 7 9 10 7 3 3 4 4 4 4 4 4 5 6 8 8 9 10 10 10 11 11 11 10 10 10 10 10 10 10 10 10 10 9 9 8
23 23 23 22 21 20 20 19 19 18 17 17 16 16 15 15 16 15 13 13 13 13 12 13 14 14 13 13 13 13 12 12 12 12 12 11 12 13 13 11 9 10 12 9 7 8 9 8 10 13 13 11 11 9 6 4 4 5 5 5 5 5 4 6 7 8 8 9 9 9 10 11 11 10 10 10 9 9 10 10 10 10 10 9 9 9 9
24 23 22 21 21 20 19 19 18 18 17 17 16 16 16 16 16 15 14 14 14 14 13 14 14 14 14 14 14 13 13 13 12 12 12 12 12 13 14 14 13 13 13 10 8 8 9 10 14 16 15 13 11 8 5 5 6 6 6 6 6 6 6 7 8 8 9 9 9 9 9 10 10 10 10 9 9 9 10 10 10 11 10 9 9 9 9
23 23 22 21 21 20 19 19 18 17 16 16 17 17 17 17 16 16 15 14 14 14 14 14 14 13 14 14 14 14 14 13 13 13 13 11 9 9 12 14 13 12 11 9 7 8 10 13 16 17 15 12 10 8 6 6 6 7 7 7 8 8 8 8 9 9 9 9 9 8 9 9 9 10 10 9 9 9 9 9 10 10 10 10 10 9 9
23 22 22 21 21 19 18 18 18 17 17 17 18 18 18 18 17 17 16 15 15 15 15 14 14 13 14 14 14 14 14 14 14 14 14 13 12 11 12 14 14 13 13 11 8 9 12 15 16 15 14 12 10 8 7 7 8 8 9 9 9 9 9 10 10 11 10 10 10 10 9 9 10 10 10 10 10 9 9 9 9 9 9 10 10 10 9
23 23 22 21 20 19 19 19 19 19 18 18 18 19 19 19 18 17 16 16 15 15 15 14 14 14 14 14 15 14 14 14 14 13 13 14 14 13 13 14 16 16 15 12 11 12 14 16 16 14 13 12 11 9 8 8 8 9 9 9 10 10 10 10 10 11 10 10 11 11 10 11 11 11 10 10 9 9 9 9 8 8 9 11 11 11 10
23 22 21 21 20 20 20 20 20 19 19 19 19 19 19 19 19 18 18 17 17 17 16 15 15 14 14 14 15 14 14 14 14 12 10 11 13 13 12 14 16 16 14 11 11 12 13 14 14 14 13 13 11 10 9 9 10 10 10 11 11 10 10 10 11 12 12 11 11 11 11 11 11 11 11 10 9 9 9 8 8 10 13 14 12 10 9
23 22 22 21 21 21 21 21 20 20 20 20 20 19 19 19 19 20 19 18 18 18 17 16 15 15 15 15 15 14 13 14 14 13 10 10 12 13 12 12 14 15 13 11 10 11 13 14 14 15 15 14 13 11 10 10 11 11 11 11 11 10 10 12 13 13 13 12 11 10 10 11 11 11 11 10 9 9 9 9 10 12 14 13 10 9 10
24 24 23 22 22 21 21 21 20 20 19 19 20 20 20 20 20 19 19 19 19 19 18 17 16 16 15 15 15 14 14 13 14 14 13 12 12 13 13 13 12 14 14 12 12 11 12 13 14 15 16 15 14 12 12 13 13 12 11 11 11 11 11 11 11 10 10 10 11 11 11 11 11 11 10 10 10 10 10 11 12 12 12 12 13 14 14
24 24 23 22 22 21 21 21 20 20 19 19 20 20 21 20 20 19 19 20 19 19 19 18 17 16 16 16 15 15 14 14 13 13 13 12 12 12 13 13 13 13 14 13 13 12 12 12 13 14 15 15 13 13 13 14 14 14 12 12 11 11 11 11 12 11 11 11 11 11 10 10 11 12 11 10 10 11 11 11 11 12 13 15 17 18 16
Wind_Direction
164 340 253 200 193 205 210 201 202 212 211 212 224 223 225 313 288 143 141 140 137 145 151 144 140 138 132 130 130 131 132 127 123 120 114 109 102 92 82 73 64 58 52 46 41 37 33 31 28 26 25 21 18 16 14 12 12 11 10 10 10 10 8 7 6 6 4 2 1 359 358 358 357 356 354 354 351 346 339 331 318 302 288 281 279 281 286
160 157 171 176 163 143 135 160 178 201 203 193 197 188 151 106 107 130 137 131 128 138 142 135 134 132 128 129 131 132 132 127 124 120 114 109 99 88 79 71 63 57 52 46 40 36 33 29 27 26 23 18 15 14 13 12 11 10 9 10 12 11 9 8 6 6 4 3 3 1 360 360 359 359 358 355 356 356 351 341 329 315 297 286 282 281 284
151 149 145 146 135 115 94 90 108 120 127 127 111 104 114 116 116 125 127 121 117 125 127 125 127 128 129 131 132 132 130 127 124 120 113 107 98 87 78 71 63 57 51 45 39 34 31 28 27 26 20 14 12 13 12 11 11 11 9 10 12 12 10 9 7 6 5 4 4 4 3 2 0 0 360 359 1 5 6 359 347 333 316 301 292 286 283
146 151 148 137 117 103 87 68 65 81 94 98 96 94 106 121 126 127 126 125 129 132 128 126 127 131 132 133 132 131 129 128 125 120 113 105 97 88 80 71 62 57 49 42 37 32 30 30 27 21 17 14 11 12 12 11 12 12 11 11 12 13 12 10 9 8 6 5 5 5 4 3 2 2 1 1 2 6 11 12 7 358 344 328 316 304 293
144 150 148 141 133 126 103 62 31 34 86 97 92 84 90 116 134 139 136 138 143 140 136 131 131 135 134 132 133 132 130 129 126 118 110 103 95 87 78 70 62 55 47 41 35 30 31 33 25 17 17 17 13 12 12 13 14 15 15 13 13 13 12 11 11 9 7 6 6 5 4 4 3 3 2 2 3 3 6 11 14 14 8 357 346 332 316
153 160 164 165 171 169 123 56 351 1 75 99 97 88 85 92 98 94 103 124 136 140 139 135 134 135 133 130 131 130 129 130 126 120 112 104 98 89 79 69 60 52 46 40 35 35 37 32 20 15 19 20 16 14 14 15 17 18 18 16 16 15 13 12 11 10 8 8 8 7 6 5 4 4 3 2 2 2 1 3 9 15 16 13 7 359 347
156 161 175 182 179 150 112 119 48 58 79 94 92 83 77 83 92 99 108 124 135 134 132 131 129 128 126 124 125 127 130 131 127 123 117 107 101 95 84 74 62 51 45 40 38 40 38 27 18 19 21 21 18 17 18 19 20 20 20 19 19 17 15 13 11 10 9 8 8 8 7 7 7 6 4 2 2 2 1 359 0 6 13 16 15 11 4
157 166 185 182 138 116 125 139 118 109 116 118 99 76 66 81 103 114 120 126 129 127 127 126 125 123 120 116 116 124 130 130 128 125 119 113 107 99 90 80 68 55 47 43 43 43 37 27 27 28 24 22 22 21 22 23 22 22 22 21 21 19 18 16 13 11 9 8 8 8 7 7 7 6 6 5 3 3 2 0 359 359 3 9 14 16 12
168 162 133 120 137 145 156 163 149 133 138 147 117 89 79 93 114 124 127 127 128 128 127 127 126 123 116 109 112 126 131 129 126 123 119 115 107 99 91 81 71 61 53 50 49 47 42 37 36 33 28 27 27 26 25 25 23 23 23 22 21 20 19 18 16 14 11 9 9 8 7 7 7 6 5 5 4 4 2 1 1 0 359 359 5 11 14
174 154 127 141 164 166 168 170 166 152 97 100 108 108 104 116 129 134 133 132 132 133 132 134 136 130 118 113 128 138 135 129 126 123 118 114 108 99 90 81 74 67 60 57 53 50 47 43 39 36 32 31 31 29 27 26 24 24 24 22 20 19 19 17 16 14 13 11 11 10 9 9 7 5 4 4 5 4 4 2 360 0 0 358 356 359 5
175 170 172 173 158 92 140 158 164 174 175 145 139 141 139 143 146 144 140 137 139 140 141 145 150 147 131 133 145 147 142 134 130 127 120 117 114 104 94 87 82 75 67 62 57 52 49 45 40 37 35 34 33 32 28 26 25 24 23 21 19 18 17 15 14 14 14 13 12 12 11 11 10 8 5 5 5 5 5 5 3 1 1 1 1 0 358
174 181 178 140 76 75 121 142 155 161 162 174 197 220 171 156 157 151 145 144 144 146 148 153 164 177 157 146 149 148 143 135 132 129 124 122 118 110 103 95 86 82 75 65 58 53 50 45 41 39 37 35 35 33 29 27 25 24 22 20 19 17 16 15 15 15 14 14 14 13 13 12 12 11 9 7 7 7 7 6 6 5 4 3 4 5 4
170 187 169 105 83 104 125 141 150 146 150 187 219 225 138 149 154 151 148 147 145 147 152 159 166 142 130 138 143 143 140 137 134 130 126 123 118 112 109 101 91 88 81 68 60 55 50 47 43 39 37 36 35 32 29 28 25 22 20 20 18 18 17 17 17 17 16 16 16 15 15 13 12 12 12 10 8 8 8 8 7 7 7 7 6 6 9
188 196 149 111 103 119 142 147 137 134 174 199 134 109 129 142 146 147 148 146 144 145 145 140 130 119 122 132 138 140 140 138 136 133 130 126 119 110 106 102 99 97 86 74 65 57 51 48 44 40 37 36 34 31 28 27 24 22 22 21 19 18 19 18 18 18 17 18 20 19 17 16 15 13 13 12 11 9 8 8 8 8 8 9 8 8 11
211 188 148 131 131 151 164 159 134 88 290 122 115 120 130 137 140 142 144 144 144 141 129 123 123 123 126 132 136 139 139 138 138 137 134 129 124 116 109 103 103 103 92 78 68 58 51 47 42 38 36 33 31 30 27 25 24 23 24 23 21 19 20 19 18 18 17 17 20 21 20 19 18 16 14 15 14 12 10 9 9 9 9 9 9 10 10
279 194 143 89 99 134 159 162 123 98 110 123 128 129 132 136 140 141 141 142 143 138 129 127 128 129 131 135 137 138 139 139 140 139 136 134 129 123 114 102 99 102 94 81 70 59 50 43 39 35 32 30 28 27 26 24 24 25 25 25 24 22 21 20 19 19 18 16 17 19 19 18 18 16 16 16 16 14 13 12 11 11 10 11 12 12 11
37 77 92 89 95 112 125 116 110 113 117 125 133 133 133 138 141 140 139 138 137 135 133 132 132 133 135 137 138 139 139 139 140 139 139 138 130 122 112 101 97 98 90 82 72 60 48 40 36 32 29 28 27 26 25 24 25 27 26 25 26 24 22 21 20 18 19 17 16 18 20 20 18 17 15 15 16 16 15 14 14 13 11 11 11 10 10
87 74 81 98 101 107 110 108 111 116 119 126 133 134 135 138 139 139 138 137 136 136 135 134 135 136 138 138 138 139 139 139 139 138 136 134 128 122 113 102 100 98 92 85 71 58 48 39 34 32 29 29 27 26 26 25 25 27 26 26 28 26 22 22 21 19 19 18 17 15 18 20 19 18 17 15 15 18 19 17 17 16 13 13 12 7 8
135 89 102 118 118 118 115 111 112 116 121 128 133 134 135 136 136 137 137 137 137 138 137 137 136 137 138 139 139 141 140 138 138 136 133 130 125 121 115 107 106 102 93 83 66 52 44 35 32 31 30 30 29 28 28 26 25 27 28 27 28 27 23 22 21 20 19 19 17 15 15 18 19 20 20 16 14 16 19 19 19 18 16 16 15 10 9
107 113 131 133 124 122 122 120 120 121 123 127 129 131 133 134 134 135 136 137 139 138 138 138 137 137 139 140 141 141 139 137 137 135 132 129 125 122 118 112 107 99 88 75 59 47 41 36 33 33 32 31 30 31 32 28 25 27 29 28 28 26 24 22 21 20 19 19 18 17 14 12 14 18 22 19 14 14 17 18 18 17 16 17 18 15 10
103 117 137 137 125 124 130 128 125 125 128 130 130 130 133 134 134 135 136 137 138 138 138 138 138 138 139 141 140 139 137 136 135 132 130 128 125 122 118 110 103 94 82 68 55 49 45 41 39 36 33 33 35 37 35 30 28 28 28 28 28 26 24 23 21 20 19 18 18 18 15 10 8 10 15 18 16 14 14 15 16 15 13 13 15 15 11
141 146 156 153 139 135 142 138 132 132 134 135 134 135 137 138 137 137 137 137 137 138 138 139 139 139 139 139 138 135 133 133 132 130 130 128 124 122 118 111 102 91 77 65 58 54 50 46 44 40 37 38 43 43 38 33 30 29 28 28 28 26 24 22 20 18 18 17 16 17 16 14 10 6 5 8 11 13 13 13 13 13 12 10 9 6 4
131 151 165 165 141 131 140 141 137 136 137 139 139 140 140 139 138 138 138 138 138 139 139 139 138 137 136 136 134 132 131 131 131 131 131 129 126 124 120 112 102 90 77 67 61 55 50 47 44 41 43 47 49 46 40 35 33 32 31 29 26 23 22 20 18 17 16 15 14 13 13 13 13 8 3 0 3 8 12 12 10 9 8 6 3 359 357
120 142 158 154 133 132 138 139 137 138 141 141 141 141 141 139 138 138 139 139 140 140 139 138 136 134 133 132 131 130 129 130 131 130 129 128 127 124 121 114 104 91 78 69 62 55 52 50 46 46 50 53 52 47 40 36 35 33 32 29 24 21 18 16 15 15 14 12 12 11 10 10 10 10 7 2 360 2 7 10 8 4 2 1 358 356 355
119 120 121 125 130 134 135 135 137 140 141 142 142 142 141 139 139 140 140 140 141 140 139 138 137 135 133 132 131 130 129 129 130 130 129 129 127 124 121 115 105 92 80 71 65 60 54 50 49 53 54 54 52 46 39 36 34 30 27 23 18 15 12 10 10 11 11 10 9 8 7 8 9 9 8 6 3 1 2 5 5 1 358 358 356 353 353
110 109 115 123 129 132 133 135 138 141 142 142 141 141 140 140 141 141 141 141 141 141 141 140 138 136 135 134 132 131 130 130 131 131 131 130 128 125 122 118 110 101 88 75 68 65 60 53 52 55 54 51 47 40 34 33 31 26 22 17 10 6 8 9 9 8 6 6 7 5 5 6 6 6 6 5 4 3 2 2 3 0 357 357 355 350 350
119 127 132 132 132 135 137 137 138 140 142 141 140 139 140 142 142 141 140 140 141 142 142 141 139 137 136 135 133 134 136 137 137 135 132 130 128 127 126 124 117 107 95 78 66 64 61 55 54 54 50 44 36 28 25 25 21 19 20 15 6 2 3 5 7 5 2 2 4 3 3 3 2 3 4 3 2 3 3 2 1 359 358 357 353 349 351
132 137 139 137 136 138 138 136 137 139 140 140 140 140 141 142 143 143 143 143 144 144 142 141 141 139 139 138 139 140 142 142 140 137 134 133 132 131 133 134 128 115 102 86 72 68 66 61 56 49 42 35 25 17 15 14 11 12 11 7 6 4 359 358 3 2 358 358 359 360 0 360 358 359 0 1 1 1 2 2 360 357 358 358 355 354 357
136 138 136 133 133 135 135 136 138 139 140 141 141 142 144 145 145 145 145 146 147 146 144 144 144 144 145 146 146 147 149 148 145 142 141 140 139 137 136 135 131 126 120 103 85 78 75 68 56 43 36 31 22 15 12 7 6 8 2 360 5 1 352 351 357 360 356 355 354 356 359 357 354 356 357 358 0 1 1 2 2 358 358 359 358 0 3
137 136 133 131 134 136 137 138 140 141 142 144 144 145 147 148 147 147 147 148 149 148 148 149 148 147 149 151 151 154 157 154 150 149 149 148 147 145 144 143 145 149 149 134 105 85 79 71 57 43 35 29 21 16 14 10 4 360 357 358 354 345 344 354 7 2 356 354 350 351 355 354 352 354 354 354 358 0 360 1 2 1 1 0 360 3 6
134 134 133 134 137 138 138 140 142 143 145 148 149 150 151 150 150 150 150 151 152 151 151 151 149 149 151 153 154 157 158 157 157 156 153 152 153 150 150 164 174 163 154 148 138 115 97 79 55 37 30 24 19 14 12 12 8 359 357 360 349 338 344 3 20 2 351 354 353 349 350 350 349 351 353 353 356 357 358 360 1 1 3 3 1 4 5
135 136 137 138 140 141 142 144 146 147 150 152 152 152 153 153 152 152 153 154 154 153 152 153 152 154 155 153 153 158 160 160 160 157 154 162 168 162 153 160 171 164 159 168 178 184 181 136 36 16 12 13 12 9 7 9 8 359 355 359 352 340 345 2 12 359 348 352 352 349 348 347 347 350 353 355 356 357 357 359 0 2 3 5 4 1 359
141 143 145 146 147 147 147 149 151 151 151 152 152 153 155 155 154 154 154 154 154 155 157 158 158 159 160 158 157 160 160 159 161 166 174 182 182 171 160 160 174 179 185 194 205 212 207 210 294 342 5 4 358 356 1 4 3 357 353 351 347 344 344 350 356 356 352 350 350 350 350 348 347 351 354 353 355 359 358 358 1 1 1 4 4 357 355
147 149 150 151 152 152 152 152 153 152 152 153 154 156 156 155 156 156 155 155 157 160 164 165 162 163 164 163 163 167 167 166 172 180 184 185 182 177 173 176 185 194 202 211 218 223 223 230 265 312 351 348 340 341 352 359 357 352 350 347 341 342 344 346 350 352 350 349 350 350 351 350 349 351 352 349 351 357 359 359 1 360 357 360 1 355 354
150 149 150 150 152 152 152 153 153 154 154 155 156 156 156 156 157 157 159 161 163 166 169 169 167 169 172 172 175 183 181 178 183 188 185 183 183 180 177 184 200 208 217 226 226 228 227 222 227 258 304 331 331 320 332 350 353 341 338 341 338 333 336 342 347 345 343 346 349 347 347 351 351 349 348 346 346 351 357 360 0 358 356 355 355 354 357
151 151 151 151 152 153 153 155 155 155 155 156 156 156 157 159 160 161 165 169 170 171 175 174 170 174 183 187 192 196 186 182 187 191 186 184 186 183 181 195 210 216 230 230 223 219 221 229 250 285 318 42 52 295 308 337 355 340 324 330 333 327 327 334 340 341 339 342 345 342 339 344 349 348 346 345 346 348 354 358 359 357 356 353 349 349 355
154 154 153 153 154 155 155 155 156 156 156 157 157 158 160 164 165 166 172 177 177 177 182 181 175 178 190 195 196 192 186 184 187 188 184 184 187 184 181 190 203 221 242 232 217 202 211 235 265 309 12 76 10 293 301 328 353 350 325 321 322 321 323 326 330 335 337 339 342 340 337 340 345 346 343 343 346 348 352 356 356 355 353 353 351 349 349
156 156 155 154 156 156 155 156 157 157 157 158 160 162 165 168 170 170 176 184 186 185 187 187 181 179 185 189 190 190 187 183 182 182 182 182 185 184 185 194 204 218 232 220 198 190 217 241 271 333 45 181 280 289 298 321 343 351 337 318 314 317 321 323 325 329 334 339 341 338 336 338 341 341 339 340 343 344 343 346 351 352 353 355 358 357 355
158 158 157 156 157 157 157 157 157 158 159 162 165 167 170 174 176 175 179 186 189 187 188 188 183 179 180 183 187 189 187 183 182 182 182 185 190 196 205 215 219 221 226 225 212 214 234 251 273 308 264 272 289 290 293 309 332 353 347 317 311 315 316 317 322 326 330 337 337 332 331 336 338 337 335 335 336 337 338 340 346 350 354 357 359 2 3
161 160 160 160 161 160 160 160 161 163 165 168 170 171 175 178 179 178 180 182 183 184 187 187 184 182 183 184 188 191 191 192 195 195 194 200 206 212 224 235 234 225 228 238 233 226 242 260 266 230 252 282 284 264 283 306 334 3 352 316 312 319 316 314 325 331 333 336 336 333 333 336 335 333 333 332 331 334 337 338 341 346 351 353 356 360 6
163 162 163 164 164 163 163 165 167 168 170 173 174 175 178 180 180 181 183 183 183 185 189 189 187 187 188 189 193 196 195 196 201 204 206 209 210 215 234 245 227 208 219 238 236 228 243 259 252 223 247 276 259 250 274 313 337 345 330 317 318 323 318 317 325 331 333 335 336 335 336 335 332 331 332 331 330 334 337 337 339 343 345 348 352 356 1
166 166 166 166 167 167 168 170 171 172 174 177 179 179 180 182 185 186 188 189 188 189 193 194 193 192 191 193 197 200 200 201 205 207 209 211 211 218 237 238 201 196 218 246 246 235 244 253 240 221 223 241 249 259 281 320 327 296 301 315 317 317 319 322 327 330 332 334 335 335 337 336 334 333 334 333 332 337 339 338 341 342 340 340 344 349 352
169 169 169 170 170 172 173 175 177 179 181 184 185 186 185 187 189 191 192 194 194 194 196 197 196 196 196 198 202 205 208 210 210 209 210 215 221 229 235 228 208 216 240 255 242 229 236 239 231 227 228 230 245 263 282 307 289 282 291 300 302 307 312 318 324 326 327 330 332 334 337 338 336 335 337 337 336 338 340 341 341 341 339 337 337 339 343
172 173 174 175 175 177 179 180 183 186 188 189 190 192 192 191 192 195 197 197 197 197 198 198 197 198 202 205 208 210 211 211 212 214 217 223 230 231 227 221 224 242 254 254 238 229 234 233 231 235 243 249 254 261 270 271 270 278 287 288 291 296 302 310 318 321 322 325 327 328 332 337 339 338 339 339 338 339 341 343 342 339 337 336 335 333 336
177 178 179 180 181 183 185 186 187 190 192 192 193 196 197 195 196 198 200 200 199 199 201 202 201 202 206 211 213 215 216 217 217 218 221 230 238 233 221 216 224 241 250 249 236 229 233 233 233 238 248 253 251 249 255 262 265 272 279 283 285 287 293 300 307 310 312 316 320 321 325 331 334 336 337 337 338 339 339 340 341 341 340 339 335 330 329
182 183 184 186 187 187 188 190 191 193 195 195 196 199 200 200 200 202 204 204 202 201 203 206 208 209 211 213 215 217 219 223 224 223 223 231 239 227 208 202 210 229 246 250 236 225 231 237 238 243 248 246 237 236 249 262 266 273 281 284 284 286 290 296 301 303 304 307 311 316 319 321 324 329 331 331 333 336 336 336 340 342 341 340 338 332 328
186 187 188 189 190 190 190 192 194 197 200 202 201 201 202 203 204 205 206 207 206 206 207 210 213 215 216 216 217 217 218 223 227 228 227 231 242 245 235 225 225 237 250 250 231 216 228 240 244 244 240 231 226 235 251 258 263 273 279 281 284 287 288 291 295 296 295 295 298 302 304 307 312 318 320 320 324 328 329 330 335 338 339 341 339 332 326
189 190 190 191 193 193 194 197 200 204 207 208 207 205 205 205 206 207 208 209 209 210 212 213 216 218 218 217 217 218 220 223 227 229 227 227 233 242 248 246 245 247 249 243 225 215 223 235 240 237 228 223 226 238 248 254 262 272 277 279 282 284 285 288 292 294 293 293 293 292 293 298 304 306 305 307 312 315 317 322 327 328 328 332 333 330 325
192 192 192 194 197 198 200 202 206 210 211 212 211 208 206 206 208 211 212 212 212 213 214 216 218 219 218 217 217 220 222 224 226 230 231 226 223 226 236 246 250 248 241 231 226 228 231 232 231 227 223 222 227 236 246 256 263 268 271 274 277 278 280 281 278 276 278 283 287 286 287 291 295 295 295 297 299 302 307 313 312 309 312 320 325 327 324
192 194 196 198 200 203 205 207 210 212 212 211 211 209 207 207 210 212 213 214 214 215 216 218 219 219 218 218 218 220 223 225 227 230 232 228 222 222 227 240 250 248 236 217 215 232 243 241 232 226 225 228 233 240 248 256 261 263 268 272 272 272 274 275 273 273 277 281 280 278 280 285 286 287 288 290 291 292 296 299 300 303 310 316 317 314 313
193 197 200 202 205 208 210 211 212 212 211 210 209 208 207 208 211 212 213 213 215 216 217 219 220 218 217 218 220 222 224 227 227 228 230 229 225 223 221 222 232 242 238 219 206 220 244 251 245 236 232 233 236 242 248 252 253 255 261 266 267 267 270 273 274 277 281 278 272 272 278 282 281 281 284 286 285 284 287 293 297 298 300 300 300 301 304
197 201 204 206 209 211 212 212 211 211 210 209 209 209 209 209 212 214 213 214 215 216 218 219 219 218 217 219 221 223 225 226 226 227 228 226 223 223 225 223 225 234 237 226 214 217 233 245 248 247 242 236 233 240 250 255 254 253 257 261 263 263 265 267 267 267 267 267 270 276 280 277 273 274 278 280 280 281 285 290 291 290 290 294 299 301 300